Location: Barcelona
(41.3830°N, 2.1830°E)
Time: 22:54:31
(UTC+02:00)

ISS - Pass Details

Date: 20 May 2019
Orbit: 408 x 418 km, 51.6° (Epoch: 26 May)

Event Time Altitude Azimuth Distance (km) Brightness Sun altitude
Rises 22:39:14 0° 252° (WSW) 2,339 0.4 -14.6°
Reaches altitude 10° 22:41:24 10° 260° (W) 1,482 -0.5 -14.9°
Maximum altitude 22:44:34 39° 332° (NNW) 632 -2.3 -15.3°
Drops below altitude 10° 22:47:44 10° 43° (NE) 1,493 -0.9 -15.8°
Sets 22:49:56 0° 51° (NE) 2,361 0.0 -16.0°
